Weather History for KCBK - April, 2013

Change the Weather History Date:

Tuesday, April 2, 2013

  Actual Average (KGLD) Record (KGLD)
Temperature  
Mean Temperature 38 °F 45 °F  
Max Temperature 42 °F 60 °F 86 °F (1996)
Min Temperature 33 °F 31 °F 0 °F (1936)
Degree Days  
Heating Degree Days 28 20  
Month to date heating degree days 40  
Since 1 July heating degree days 5215  
Cooling Degree Days 0 0  
Month to date cooling degree days 0  
Year to date cooling degree days 0  
Moisture  
Dew Point 29 °F    
Average Humidity 72    
Maximum Humidity 93    
Minimum Humidity 53    
Precipitation  
Precipitation 0.00 in 0.04 in 0.75 in (1957)
Month to date precipitation 0.08  
Year to date precipitation 2.02  
Snow  
Snow 0.00 in 0.30 in - ()
Month to date snowfall 0.5  
Since 1 July snowfall 31.3  
Snow Depth -    
Sea Level Pressure  
Sea Level Pressure 30.20 in    
Wind  
Wind Speed 8 mph (South)    
Max Wind Speed 14 mph    
Max Gust Speed 16 mph    
Visibility 10 miles    
Events      
T = Trace of Precipitation, MM = Missing Value Source: NWS Daily Summary

Daily Weather History Graph

Daily Weather History Graph

Search for Another Location

Airport or City:

Trip Planner

Search our weather history database for the weather conditions in past years. The results will help you decide how hot, cold, wet, or windy it might be!

Date:

Astronomy

Apr. 02, 2013 Rise Set
Actual Time 7:26 AM CDT 8:09 PM CDT
Civil Twilight 6:59 AM CDT 8:36 PM CDT
Nautical Twilight 6:27 AM CDT 9:08 PM CDT
Astronomical Twilight 5:54 AM CDT 9:41 PM CDT
Moon 2:14 AM CDT (4/2) 12:20 PM CDT (4/2)
Length of Visible Light 13h 37m
Length of Day
12h 42m
Waning Gibbous, 55% of the Moon is Illuminated
Apr 2
Waning Gibbous
Apr 2
Last Quarter
Apr 10
New
Apr 18
First Quarter
Apr 25
Full

Hourly Weather History & Observations

Time (CDT) Temp. Windchill Dew Point Humidity Pressure Visibility Wind Dir Wind Speed Gust Speed Precip Events Conditions
12:15 AM 35.6 °F 29.2 °F 30.2 °F 81% 30.20 in 10.0 mi SSE 8.1 mph - N/A   Clear
12:35 AM 35.6 °F 29.2 °F 30.2 °F 81% 30.20 in 10.0 mi SSE 8.1 mph - N/A   Mostly Cloudy
12:55 AM 35.6 °F 29.2 °F 30.2 °F 81% 30.20 in 10.0 mi SSE 8.1 mph - N/A   Mostly Cloudy
1:15 AM 35.6 °F 29.2 °F 30.2 °F 81% 30.20 in 10.0 mi SSE 8.1 mph - N/A   Mostly Cloudy
1:35 AM 35.6 °F 29.2 °F 30.2 °F 81% 30.21 in 10.0 mi South 8.1 mph - N/A   Overcast
1:55 AM 35.6 °F 29.9 °F 28.4 °F 75% 30.20 in 10.0 mi SSE 6.9 mph - N/A   Overcast
2:15 AM 35.6 °F 29.2 °F 28.4 °F 75% 30.22 in 10.0 mi South 8.1 mph - N/A   Overcast
2:35 AM 35.6 °F 26.6 °F 28.4 °F 75% 30.21 in 10.0 mi SSE 13.8 mph - N/A   Overcast
2:55 AM 35.6 °F 28.6 °F 28.4 °F 75% 30.21 in 10.0 mi South 9.2 mph - N/A   Overcast
3:15 AM 35.6 °F 28.0 °F 30.2 °F 81% 30.21 in 10.0 mi South 10.4 mph - N/A   Overcast
3:35 AM 35.6 °F 29.2 °F 30.2 °F 81% 30.21 in 10.0 mi South 8.1 mph - N/A   Overcast
3:55 AM 35.6 °F 30.7 °F 30.2 °F 81% 30.21 in 10.0 mi SSW 5.8 mph - N/A   Overcast
4:15 AM 35.6 °F 29.9 °F 30.2 °F 81% 30.20 in 10.0 mi SSW 6.9 mph - N/A   Overcast
4:35 AM 35.6 °F 29.9 °F 30.2 °F 81% 30.20 in 10.0 mi SSW 6.9 mph - N/A   Overcast
4:55 AM 35.6 °F 30.7 °F 30.2 °F 81% 30.19 in 10.0 mi SSW 5.8 mph - N/A   Overcast
5:15 AM 35.6 °F 29.9 °F 28.4 °F 75% 30.19 in 10.0 mi South 6.9 mph - N/A   Overcast
5:35 AM 35.6 °F 28.6 °F 28.4 °F 75% 30.19 in 10.0 mi SSW 9.2 mph - N/A   Overcast
5:55 AM 35.6 °F 28.6 °F 28.4 °F 75% 30.19 in 10.0 mi SSW 9.2 mph - N/A   Overcast
6:15 AM 35.6 °F 29.9 °F 30.2 °F 81% 30.19 in 10.0 mi SW 6.9 mph - N/A   Overcast
6:35 AM 35.6 °F 29.2 °F 28.4 °F 75% 30.19 in 10.0 mi SSW 8.1 mph - N/A   Overcast
6:55 AM 35.6 °F 29.2 °F 30.2 °F 81% 30.18 in 10.0 mi SSW 8.1 mph - N/A   Overcast
7:15 AM 35.6 °F 29.2 °F 30.2 °F 81% 30.18 in 10.0 mi SSW 8.1 mph - N/A   Overcast
7:35 AM 35.6 °F 29.9 °F 30.2 °F 81% 30.19 in 10.0 mi SSW 6.9 mph - N/A   Overcast
7:55 AM 35.6 °F 29.9 °F 30.2 °F 81% 30.20 in 10.0 mi SSW 6.9 mph - N/A   Overcast
8:15 AM 33.8 °F 25.8 °F 32.0 °F 93% 30.20 in 10.0 mi SSW 10.4 mph - N/A   Overcast
8:35 AM 33.8 °F 25.8 °F 32.0 °F 93% 30.21 in 10.0 mi South 10.4 mph - N/A   Overcast
8:55 AM 33.8 °F 25.3 °F 32.0 °F 93% 30.21 in 10.0 mi SSW 11.5 mph - N/A   Overcast
9:15 AM 33.8 °F 25.8 °F 32.0 °F 93% 30.21 in 10.0 mi SSW 10.4 mph - N/A   Overcast
9:35 AM 35.6 °F 28.6 °F 32.0 °F 87% 30.22 in 10.0 mi SSW 9.2 mph - N/A   Overcast
9:55 AM 35.6 °F 29.9 °F 32.0 °F 87% 30.23 in 10.0 mi South 6.9 mph - N/A   Overcast
10:15 AM 35.6 °F 29.2 °F 32.0 °F 87% 30.23 in 10.0 mi South 8.1 mph - N/A   Overcast
10:35 AM 35.6 °F 28.6 °F 32.0 °F 87% 30.24 in 10.0 mi SSW 9.2 mph - N/A   Overcast
10:55 AM 35.6 °F 28.6 °F 32.0 °F 87% 30.24 in 10.0 mi South 9.2 mph - N/A   Overcast
11:15 AM 37.4 °F 31.4 °F 32.0 °F 81% 30.24 in 10.0 mi South 8.1 mph - N/A   Overcast
11:35 AM 37.4 °F 31.4 °F 30.2 °F 75% 30.24 in 10.0 mi South 8.1 mph - N/A   Overcast
11:55 AM 37.4 °F 30.8 °F 30.2 °F 75% 30.24 in 10.0 mi South 9.2 mph - N/A   Overcast
12:15 PM 39.2 °F 32.5 °F 28.4 °F 65% 30.24 in 10.0 mi SSE 10.4 mph - N/A   Overcast
12:35 PM 39.2 °F 32.5 °F 30.2 °F 70% 30.23 in 10.0 mi South 10.4 mph - N/A   Overcast
12:55 PM 39.2 °F 32.5 °F 30.2 °F 70% 30.22 in 10.0 mi South 10.4 mph 16.1 mph N/A   Overcast
1:15 PM 41.0 °F 35.8 °F 30.2 °F 65% 30.22 in 10.0 mi SSE 8.1 mph - N/A   Overcast
1:35 PM 41.0 °F 35.2 °F 30.2 °F 65% 30.22 in 10.0 mi South 9.2 mph - N/A   Overcast
1:55 PM 41.0 °F 37.1 °F 30.2 °F 65% 30.21 in 10.0 mi South 5.8 mph - N/A   Overcast
2:15 PM 41.0 °F 34.7 °F 30.2 °F 65% 30.20 in 10.0 mi SSE 10.4 mph - N/A   Overcast
2:35 PM 41.0 °F 35.8 °F 30.2 °F 65% 30.20 in 10.0 mi SSE 8.1 mph - N/A   Overcast
2:55 PM 41.0 °F 37.1 °F 30.2 °F 65% 30.20 in 10.0 mi South 5.8 mph - N/A   Overcast
3:15 PM 41.0 °F 34.7 °F 30.2 °F 65% 30.20 in 10.0 mi South 10.4 mph - N/A   Overcast
3:35 PM 41.0 °F 35.8 °F 28.4 °F 61% 30.20 in 10.0 mi South 8.1 mph - N/A   Overcast
3:55 PM 41.0 °F 37.1 °F 28.4 °F 61% 30.19 in 10.0 mi South 5.8 mph - N/A   Overcast
4:15 PM 41.0 °F 35.2 °F 26.6 °F 57% 30.19 in 10.0 mi SSE 9.2 mph - N/A   Overcast
4:35 PM 42.8 °F 38.6 °F 26.6 °F 53% 30.18 in 10.0 mi SE 6.9 mph - N/A   Overcast
4:55 PM 42.8 °F 38.0 °F 28.4 °F 57% 30.18 in 10.0 mi SSE 8.1 mph - N/A   Overcast
5:15 PM 41.0 °F 37.1 °F 26.6 °F 57% 30.18 in 10.0 mi SSE 5.8 mph - N/A   Overcast
5:35 PM 41.0 °F 38.0 °F 26.6 °F 57% 30.17 in 10.0 mi SSE 4.6 mph - N/A   Overcast
5:55 PM 42.8 °F 39.3 °F 26.6 °F 53% 30.18 in 10.0 mi South 5.8 mph - N/A   Overcast
6:15 PM 41.0 °F 38.0 °F 26.6 °F 57% 30.18 in 10.0 mi South 4.6 mph - N/A   Overcast
6:35 PM 41.0 °F 38.0 °F 26.6 °F 57% 30.18 in 10.0 mi SSE 4.6 mph - N/A   Overcast
6:55 PM 41.0 °F 38.0 °F 26.6 °F 57% 30.18 in 10.0 mi SE 4.6 mph - N/A   Overcast
7:15 PM 41.0 °F 36.4 °F 26.6 °F 57% 30.18 in 10.0 mi SSE 6.9 mph - N/A   Overcast
7:35 PM 41.0 °F 37.1 °F 26.6 °F 57% 30.18 in 10.0 mi SE 5.8 mph - N/A   Overcast
7:55 PM 41.0 °F 38.0 °F 26.6 °F 57% 30.18 in 10.0 mi SE 4.6 mph - N/A   Overcast
8:15 PM 41.0 °F 38.0 °F 28.4 °F 61% 30.18 in 10.0 mi SE 4.6 mph - N/A   Overcast
8:35 PM 41.0 °F 39.0 °F 28.4 °F 61% 30.18 in 10.0 mi SE 3.5 mph - N/A   Overcast
8:55 PM 41.0 °F 38.0 °F 28.4 °F 61% 30.19 in 10.0 mi SE 4.6 mph - N/A   Overcast
9:15 PM 41.0 °F - 28.4 °F 61% 30.20 in 10.0 mi Calm Calm - N/A   Overcast
9:35 PM 39.2 °F - 28.4 °F 65% 30.20 in 10.0 mi Calm Calm - N/A   Overcast
9:55 PM 39.2 °F 37.0 °F 30.2 °F 70% 30.20 in 10.0 mi South 3.5 mph - N/A   Overcast
10:15 PM 39.2 °F - 28.4 °F 65% 30.21 in 10.0 mi Calm Calm - N/A   Overcast
10:35 PM 39.2 °F 37.0 °F 28.4 °F 65% 30.21 in 10.0 mi South 3.5 mph - N/A   Overcast
10:55 PM 39.2 °F 37.0 °F 28.4 °F 65% 30.23 in 10.0 mi South 3.5 mph - N/A   Overcast
11:35 PM 37.4 °F 32.8 °F 30.2 °F 75% 30.23 in 10.0 mi SSW 5.8 mph - N/A   Overcast
11:55 PM 37.4 °F 32.1 °F 30.2 °F 75% 30.23 in 10.0 mi SW 6.9 mph - N/A   Overcast